RH
10 12 13 13 13 12 11 10 9 8 7 7 13 27 28 25 23 23 22 20 17 14 13 14 14 12 12 12 12 12 12 12 13 15 16 16 19 22 27 29 30 30 34 37 42 47 48
8 9 10 9 10 10 10 10 13 14 13 8 8 19 29 29 27 24 24 24 22 19 15 13 15 15 12 11 12 12 12 12 12 14 16 18 19 22 24 29 28 30 28 31 33 42 47
7 8 8 8 8 9 10 14 16 15 14 12 8 11 24 28 30 29 27 27 26 24 18 14 15 16 15 16 13 12 12 13 13 14 14 16 19 22 23 28 28 29 24 24 25 35 45
7 8 8 8 9 10 13 17 20 19 16 13 11 7 13 23 29 29 28 29 28 26 24 16 16 19 17 18 17 14 13 13 13 14 14 14 16 18 21 24 26 28 30 30 22 35 42
8 8 9 9 10 13 16 20 21 16 14 16 13 9 8 14 24 25 24 28 23 24 22 15 18 21 18 21 19 18 16 16 15 15 15 16 17 16 19 21 22 30 36 32 25 34 44
9 10 10 11 12 15 18 21 21 17 10 10 15 13 9 10 17 23 23 26 20 19 20 18 19 20 21 23 23 20 21 21 19 19 19 21 24 19 20 25 37 41 40 32 30 32 38
10 10 11 13 16 17 19 21 22 20 14 8 7 12 14 11 11 17 22 19 19 17 19 21 20 20 22 24 23 22 24 24 22 22 21 25 27 21 24 26 30 35 36 36 26 36 38
11 12 12 12 15 18 20 21 22 21 20 15 11 8 7 10 12 12 12 13 15 17 17 19 19 19 19 21 22 21 22 22 22 22 23 25 26 28 25 26 31 36 36 28 33 31 39
14 17 16 14 14 15 17 19 20 21 20 20 18 14 13 10 7 10 9 12 11 11 15 16 18 18 18 18 20 19 19 21 20 20 22 24 28 29 30 28 36 32 27 36 43 28 33
11 16 21 16 15 15 15 16 18 18 18 17 17 18 18 16 14 13 10 8 7 10 13 18 19 18 17 15 17 15 15 21 21 19 21 22 24 27 31 32 37 31 28 39 41 34 49
8 8 12 19 21 21 22 17 16 17 16 15 15 14 14 15 17 17 16 14 11 10 45 20 22 18 16 16 15 16 13 13 19 20 22 20 21 21 28 34 37 30 30 37 30 35 48
12 12 11 11 16 26 24 16 13 15 15 15 13 12 9 10 11 14 15 16 15 16 24 18 20 18 16 16 16 17 17 15 14 17 17 18 22 23 25 29 35 36 31 34 36 32 61
13 12 12 12 11 11 12 13 13 12 12 13 14 13 11 9 7 7 9 12 14 16 14 20 21 17 17 13 12 18 18 16 17 20 16 13 18 24 23 24 33 35 34 52 56 61 54
11 11 11 10 10 10 9 9 9 10 9 9 10 12 12 11 8 6 6 8 12 12 11 11 14 15 17 11 15 20 18 15 15 21 23 21 16 18 25 28 38 40 42 54 66 78 66
35 34 31 31 30 28 23 18 13 10 10 11 10 11 11 11 11 10 6 6 7 9 11 14 16 19 12 13 20 20 16 13 18 19 23 26 19 17 24 26 35 41 40 49 59 64 75
23 23 21 20 19 18 17 14 12 13 18 19 17 13 11 11 12 12 13 9 8 8 8 10 14 10 14 14 20 20 15 12 18 20 24 29 30 17 24 23 34 37 41 48 48 70 71
18 19 20 21 21 22 21 21 19 17 10 5 6 12 15 17 16 16 18 14 12 12 9 8 12 14 15 22 27 18 16 12 14 24 29 31 35 23 23 24 29 39 41 46 50 54 79
4 6 6 7 9 11 13 13 11 11 9 8 6 3 6 6 14 20 20 19 17 15 12 9 11 17 24 32 25 9 13 12 15 22 35 35 40 38 25 26 28 38 40 44 51 54 56
1 1 1 1 1 1 1 1 1 1 1 1 1 1 1 1 4 6 16 28 27 22 18 22 26 24 20 15 13 22 28 25 27 37 43 38 43 41 33 27 34 35 41 46 51 54 60
1 1 1 1 1 1 1 1 1 1 1 1 1 1 2 3 5 6 9 18 25 35 37 34 31 28 24 20 20 30 36 35 42 48 50 52 50 47 45 36 39 42 42 47 54 57 55
1 1 1 2 2 2 1 1 1 1 1 1 1 3 4 8 15 23 26 28 34 46 52 53 54 52 55 62 60 52 57 59 54 49 57 64 60 57 54 49 43 48 46 44 54 50 62
2 2 2 2 3 3 3 3 2 2 2 2 2 2 3 4 10 19 44 50 52 59 67 68 78 72 75 73 76 76 74 71 68 58 62 62 69 67 68 59 49 54 52 36 37 37 42
3 4 4 3 2 2 3 2 2 2 2 2 2 2 2 5 7 9 23 31 56 67 64 85 75 73 57 65 67 64 70 69 70 72 70 84 83 83 80 69 63 66 44 25 19 17 17
3 3 3 4 4 2 2 2 2 2 2 2 3 4 4 4 4 5 7 16 29 53 74 43 65 86 70 63 57 57 60 67 73 71 83 89 84 90 86 77 83 53 46 34 32 25 23
2 2 2 2 2 2 2 2 3 4 4 5 5 7 7 8 8 6 8 9 11 13 17 26 23 26 30 28 22 21 33 33 16 26 55 74 78 89 85 76 61 55 37 31 38 21 19
2 2 2 2 2 2 3 4 5 11 29 30 39 32 21 22 21 28 22 17 20 18 19 23 33 22 36 91 86 97 72 56 57 73 56 58 70 80 80 88 83 47 38 34 25 39 19
2 2 2 2 3 3 3 5 8 18 98 90 88 86 82 68 45 54 57 49 47 48 38 24 20 17 32 27 29 81 88 82 71 64 63 71 94 96 97 84 75 69 59 46 48 33 33
2 2 2 3 3 3 4 5 7 14 58 90 99 100 97 88 72 75 61 78 68 51 55 44 53 75 87 89 76 78 88 86 81 69 64 66 74 84 100 97 88 75 58 54 34 44 42
3 3 4 4 4 5 6 7 9 32 83 88 85 100 99 99 97 98 92 76 54 56 61 65 72 54 40 38 70 72 96 99 92 98 95 94 85 78 78 72 59 59 45 43 55 57 52
Wind_Speed
5 2 0 2 3 5 6 8 9 9 9 9 8 8 8 9 9 9 10 9 9 10 9 9 10 10 11 10 11 11 12 13 14 14 14 14 14 15 16 16 19 20 18 18 21 21 20
2 1 1 3 4 6 7 8 9 10 10 9 9 8 8 9 9 9 9 10 10 9 9 8 10 11 8 10 10 11 11 12 13 14 14 15 16 16 16 19 17 20 24 19 18 21 21
2 2 3 4 5 6 7 8 8 9 9 9 10 9 8 9 9 10 10 10 10 10 9 7 9 10 8 9 10 10 12 13 14 15 16 16 16 18 20 19 23 21 24 25 25 22 23
3 4 4 5 5 5 6 7 8 9 10 10 10 10 9 9 9 10 11 11 12 11 10 8 8 10 8 10 11 11 12 12 14 15 17 17 17 18 19 22 25 22 18 34 26 24 23
3 4 5 5 5 5 6 7 8 9 10 11 11 11 11 10 10 10 11 12 13 14 10 6 7 10 6 10 12 12 12 14 15 16 17 18 18 18 17 23 23 22 31 35 30 21 23
5 5 4 6 7 7 7 7 8 9 10 10 11 11 11 11 10 10 11 12 13 13 7 7 8 7 6 9 11 10 12 14 15 17 19 19 20 16 16 21 20 26 31 33 33 26 28
6 6 5 6 7 9 9 9 10 10 10 10 10 10 11 11 11 11 13 13 15 11 11 12 8 8 8 9 10 9 12 13 15 16 17 19 17 15 18 18 21 26 29 33 29 19 29
8 8 8 8 9 10 12 12 11 12 11 11 10 10 11 11 12 12 13 14 14 15 14 11 9 8 8 9 9 10 11 13 14 15 17 17 11 18 19 18 21 26 30 27 29 29 25
11 11 12 12 12 12 14 14 14 14 14 13 13 12 12 12 12 13 14 14 15 16 17 9 10 9 8 9 9 10 11 11 12 13 18 14 12 17 20 18 26 27 22 32 34 23 17
16 18 17 15 15 14 15 16 17 18 17 16 15 15 14 15 14 15 15 15 17 18 13 7 10 8 7 9 7 11 11 11 12 13 14 8 15 17 16 18 26 24 28 35 28 16 7
18 19 21 20 20 21 22 20 20 20 20 20 19 18 17 16 17 17 17 17 18 17 5 4 9 7 7 9 11 11 11 14 14 13 12 11 13 16 16 19 23 19 26 33 13 13 11
21 23 23 23 24 24 24 25 23 23 23 23 23 21 21 18 18 19 19 18 18 8 6 5 6 5 10 11 13 14 13 14 16 14 12 15 12 11 17 20 17 22 27 18 14 11 2
25 26 26 27 28 28 28 27 27 27 26 26 26 25 23 23 19 20 20 17 11 7 9 6 7 12 14 17 18 14 12 15 14 11 14 18 9 9 13 21 14 20 26 9 7 6 4
28 29 30 30 30 31 32 31 30 30 30 29 28 28 27 26 24 21 20 18 10 10 13 19 19 19 17 22 17 10 15 17 17 11 13 7 9 12 15 18 15 14 14 4 4 3 8
29 30 32 33 33 34 33 33 33 33 33 30 29 29 28 28 26 25 23 21 14 17 16 16 17 18 19 10 9 15 15 19 10 8 6 6 8 19 12 15 11 9 10 9 5 8 4
25 26 27 26 26 27 28 29 31 32 34 33 32 31 31 30 28 27 27 30 29 24 21 21 22 19 21 20 15 11 12 14 13 13 16 9 10 12 6 15 9 10 9 5 5 4 5
31 32 31 32 32 31 31 31 30 29 29 28 27 28 29 29 29 30 31 35 33 29 27 24 24 23 25 22 19 20 14 20 20 19 13 15 11 10 18 13 16 9 4 4 5 3 2
29 30 31 31 30 31 32 31 31 31 29 29 29 27 23 22 23 27 32 32 30 29 26 25 26 24 24 22 26 29 25 21 21 22 18 16 12 15 17 17 13 7 6 7 2 3 6
25 25 24 24 23 22 24 25 25 25 23 23 23 24 24 24 25 27 29 29 27 27 24 23 21 21 23 25 22 12 12 13 15 14 10 12 8 7 7 9 5 8 12 11 12 13 12
21 21 23 24 23 22 21 21 22 22 20 20 19 15 16 18 21 25 28 29 30 30 31 31 35 35 34 31 25 20 16 13 14 19 20 21 23 22 19 21 26 27 27 23 17 12 14
23 24 24 25 25 25 24 25 24 23 22 21 18 17 19 16 17 18 22 23 23 18 16 18 15 19 19 21 20 24 18 18 18 17 16 19 28 28 28 28 31 33 28 31 31 33 25
25 25 25 27 28 28 28 27 25 25 25 23 20 20 22 21 20 21 21 25 23 23 22 22 23 23 20 20 18 23 23 27 27 25 20 23 25 26 35 33 33 39 33 36 38 37 40
27 29 29 28 28 29 31 29 28 27 25 24 23 24 26 24 23 22 21 22 23 23 17 22 29 33 33 31 34 36 36 37 36 31 27 28 28 28 34 28 27 28 31 28 32 34 32
29 30 31 33 34 33 32 30 30 30 28 25 24 24 26 28 27 26 26 24 25 25 31 32 29 30 33 34 38 39 42 45 44 45 38 36 31 27 29 23 14 28 24 23 31 28 21
32 32 33 33 33 34 33 33 31 28 27 25 25 24 26 30 29 26 27 30 28 28 28 29 24 27 30 29 32 33 30 35 40 41 43 41 36 29 24 23 34 37 27 20 15 35 33
34 34 35 35 35 33 31 30 30 29 24 26 21 24 24 30 25 22 28 29 29 27 21 21 18 23 20 20 16 11 11 13 8 8 13 32 41 37 24 8 8 1 5 12 17 36 19
35 36 36 35 35 35 35 32 27 25 18 23 22 25 28 30 28 22 19 28 30 28 26 30 28 21 15 22 25 23 27 23 16 20 21 17 24 41 37 27 27 32 27 23 19 30 20
35 36 37 37 37 35 34 33 31 26 20 22 27 27 30 35 36 33 9 18 32 30 34 31 27 6 6 11 10 15 18 21 26 33 32 29 20 27 25 23 24 27 26 26 27 24 23
37 36 35 35 35 34 34 33 31 28 21 23 30 26 30 32 36 38 38 43 22 16 30 27 23 21 18 16 14 18 25 26 23 20 12 33 37 33 31 36 27 12 10 11 13 24 18
Wind_Direction
157 159 94 356 353 351 359 1 357 353 347 340 336 339 345 345 346 344 344 342 337 333 321 333 348 354 3 4 8 7 10 15 15 13 9 4 3 0 358 354 356 356 350 346 338 339 324
175 221 309 323 336 344 347 356 355 351 346 341 330 323 330 338 339 339 340 340 337 332 328 307 330 340 343 347 350 356 358 0 2 360 0 354 350 345 342 342 342 337 341 343 346 334 322
232 270 305 318 326 335 340 344 352 352 343 337 334 324 320 327 333 336 336 334 331 324 315 297 309 324 320 337 339 343 347 347 347 347 346 344 338 336 331 333 330 330 335 341 349 340 326
266 297 310 313 316 322 327 333 343 349 350 342 336 329 321 320 327 330 331 332 329 320 311 290 295 316 306 330 335 335 335 335 334 335 335 331 330 326 328 325 328 333 331 338 351 344 332
266 284 297 296 294 299 308 315 327 336 339 342 340 336 331 323 321 325 328 328 329 322 305 285 293 314 298 323 328 332 333 332 331 328 330 329 328 325 323 324 330 335 329 331 340 342 328
260 270 280 291 290 287 291 299 310 321 328 332 336 338 336 331 324 322 327 325 330 327 304 295 288 303 306 321 328 331 333 335 333 332 330 333 332 329 329 330 321 321 327 328 331 337 333
261 266 272 275 281 286 285 288 297 305 313 322 327 329 333 336 332 326 324 324 325 334 312 295 268 296 305 316 324 330 337 341 336 334 332 338 337 338 334 328 322 324 323 324 336 338 334
243 254 260 263 270 274 281 281 284 290 296 304 312 321 325 329 333 331 328 328 328 324 322 290 254 293 305 314 318 329 338 341 341 339 337 340 341 337 337 337 330 328 325 334 337 336 331
263 272 277 279 279 280 280 280 282 284 288 291 297 302 309 317 324 326 329 329 330 326 321 279 248 276 295 306 307 325 332 336 338 339 339 338 341 338 336 337 335 336 336 333 328 331 335
276 280 278 277 277 282 284 286 286 285 285 288 289 291 296 301 307 312 320 325 328 332 313 268 237 259 284 308 300 319 330 331 332 331 337 334 341 338 339 333 336 338 338 331 327 327 334
276 281 284 287 286 285 285 284 283 282 283 287 286 288 287 292 297 301 307 315 322 329 350 277 240 263 297 307 306 313 322 325 323 320 318 331 328 340 346 346 339 334 336 327 325 322 323
282 283 283 282 284 284 288 288 286 285 285 286 286 285 288 287 290 295 299 304 312 315 259 270 253 263 300 310 306 299 306 319 320 313 319 333 311 329 342 350 344 340 344 332 330 328 312
287 287 287 287 287 288 287 286 287 286 284 284 286 287 286 287 286 289 291 296 303 234 294 275 261 302 300 311 309 290 299 314 311 313 320 329 321 321 341 349 349 346 2 350 357 353 252
290 291 291 291 291 291 291 290 288 286 284 283 284 285 286 286 288 287 287 285 249 258 260 284 291 296 296 306 298 278 306 311 307 288 311 320 322 338 325 343 337 352 11 43 311 308 292
295 295 293 293 293 292 291 289 287 286 287 286 282 280 279 281 284 285 281 268 262 270 271 272 282 285 292 286 278 292 303 305 292 282 291 292 297 318 312 335 338 339 349 340 285 284 306
298 300 300 298 297 299 299 298 295 290 286 286 284 281 278 277 276 274 270 266 269 274 273 269 274 279 272 279 275 285 299 291 291 286 297 275 292 308 299 330 324 330 332 330 343 347 314
297 295 293 293 293 292 293 294 295 293 291 289 287 287 286 278 273 267 262 267 272 273 274 274 275 268 274 270 268 286 283 286 289 284 278 276 279 284 303 315 308 303 301 308 310 266 200
300 298 296 293 290 289 289 288 287 287 286 286 284 287 283 277 267 264 265 269 269 269 266 266 266 265 261 266 277 286 280 281 280 282 280 278 272 271 288 297 292 269 294 286 242 276 251
307 308 310 309 307 305 302 297 293 291 288 284 285 284 279 276 266 267 269 266 266 265 261 259 257 257 259 269 284 276 268 273 274 278 264 275 256 289 296 282 253 288 306 296 276 279 251
308 309 309 307 310 310 307 304 304 305 303 300 296 290 283 276 268 267 267 267 263 260 263 261 264 268 273 274 265 263 260 266 263 291 288 281 259 256 256 275 289 286 291 291 277 259 265
304 305 307 308 307 308 307 307 305 304 303 302 296 286 282 276 275 271 273 268 274 272 267 262 261 252 251 261 264 263 262 248 250 264 281 273 265 270 275 280 286 281 279 281 275 280 257
306 306 306 307 307 307 306 302 301 302 302 303 299 294 287 282 276 271 266 276 278 268 268 255 257 246 250 267 264 260 257 267 275 270 266 271 271 279 283 283 285 282 279 276 278 276 273
305 305 304 303 303 302 299 299 301 302 303 301 300 294 291 284 281 282 278 270 270 277 280 263 264 266 259 266 268 267 267 266 266 266 262 263 264 276 280 289 288 276 275 277 279 276 280
304 305 305 304 301 302 301 302 301 302 301 300 297 294 290 288 287 285 284 278 268 265 271 271 266 270 277 274 269 268 268 266 265 260 255 257 262 263 269 278 266 274 271 266 264 271 265
305 304 302 301 301 301 302 303 302 303 299 297 295 291 289 287 289 288 281 279 281 276 271 278 283 282 282 285 289 284 280 277 273 267 257 250 252 248 247 246 264 264 256 256 267 276 276
302 301 300 301 300 300 299 298 298 301 298 300 292 292 289 289 299 295 289 293 290 295 293 294 295 292 288 284 291 263 251 266 274 261 245 239 237 237 234 228 256 271 258 275 266 269 279
301 300 300 300 299 299 300 297 292 289 295 294 295 293 293 293 297 297 292 293 297 291 296 311 306 297 287 274 272 261 260 251 245 249 250 237 225 226 229 243 260 259 255 263 270 273 270
302 301 300 301 300 299 299 298 296 290 274 277 283 289 291 294 296 296 292 311 307 300 297 300 308 338 304 260 259 264 262 258 262 261 253 246 242 236 225 236 256 255 264 253 282 277 291
300 299 299 298 296 296 297 297 295 289 280 265 269 273 281 282 283 288 292 305 297 300 302 295 285 278 272 265 256 280 272 265 264 287 265 248 241 244 234 236 239 243 254 285 270 290 294